Versailles, OH

4:44 PM EDT on July 23, 2016 (GMT -0400)
Darke County

Weather History for KVES - October, 2013

Change the Weather History Date:

Saturday, October 19, 2013

  Actual Average (KDAY) Record (KDAY)
Temperature  
Mean Temperature 44 °F 53 °F  
Max Temperature 48 °F 63 °F 84 °F (1953)
Min Temperature 41 °F 43 °F 23 °F (1992)
Degree Days  
Heating Degree Days 20 12  
Month to date heating degree days 185  
Since 1 July heating degree days 275  
Cooling Degree Days 0 0  
Month to date cooling degree days 10  
Year to date cooling degree days 891  
Moisture  
Dew Point 39 °F    
Average Humidity 87    
Maximum Humidity 100    
Minimum Humidity 62    
Precipitation  
Precipitation 0.14 in 0.09 in 1.92 in (2011)
Month to date precipitation 1.83  
Year to date precipitation 33.44  
Snow  
Snow 0.00 in 0.10 in 4.80 in (1989)
Month to date snowfall 0.1  
Since 1 July snowfall 0.1  
Since 1 September snowfall 0.1  
Snow Depth -    
Sea Level Pressure  
Sea Level Pressure 29.90 in    
Wind  
Wind Speed 4 mph (WSW)    
Max Wind Speed 16 mph    
Max Gust Speed 20 mph    
Visibility 8 miles    
Events Rain    
T = Trace of Precipitation, MM = Missing Value Source: NWS Daily Summary

Daily Weather History Graph

Daily Weather History Graph

Search for Another Location

Airport or City:

Trip Planner

Search our weather history database for the weather conditions in past years. The results will help you decide how hot, cold, wet, or windy it might be!

Date:

Astronomy

Oct. 19, 2013 Rise Set
Actual Time 7:53 AM EDT 6:52 PM EDT
Civil Twilight 7:25 AM EDT 7:19 PM EDT
Nautical Twilight 6:54 AM EDT 7:51 PM EDT
Astronomical Twilight 6:22 AM EDT 8:22 PM EDT
Moon 7:19 PM EDT (10/19) 8:30 AM EDT (10/19)
Length of Visible Light 11h 53m
Length of Day
10h 58m
Waxing Gibbous, 99% of the Moon is Illuminated
Oct 19
Waxing Gibbous
Oct 26
Last Quarter
Nov 3
New
Nov 10
First Quarter
Nov 17
Full

Hourly Weather History & Observations

Time (EDT) Temp. Windchill Dew Point Humidity Pressure Visibility Wind Dir Wind Speed Gust Speed Precip Events Conditions
12:15 AM 42.8 °F 41.1 °F 42.8 °F 100% 29.96 in 7.0 mi North 3.5 mph - N/A   Clear
12:35 AM 42.8 °F - 41.0 °F 93% 29.96 in 7.0 mi Calm Calm - N/A   Clear
12:55 AM 42.8 °F - 41.0 °F 93% 29.96 in 7.0 mi Calm Calm - N/A   Scattered Clouds
1:15 AM 42.8 °F - 41.0 °F 93% 29.95 in 7.0 mi Calm Calm - N/A   Mostly Cloudy
1:35 AM 42.8 °F - 41.0 °F 93% 29.94 in 7.0 mi Calm Calm - N/A   Scattered Clouds
1:55 AM 41.0 °F - 41.0 °F 100% 29.94 in 7.0 mi Calm Calm - N/A   Clear
2:15 AM 41.0 °F - 41.0 °F 100% 29.93 in 5.0 mi Calm Calm - N/A   Clear
2:35 AM 41.0 °F - 41.0 °F 100% 29.94 in 4.0 mi Calm Calm - N/A   Scattered Clouds
2:55 AM 41.0 °F - 41.0 °F 100% 29.94 in 4.0 mi Calm Calm - N/A   Mostly Cloudy
3:15 AM 41.0 °F - 41.0 °F 100% 29.94 in 5.0 mi Calm Calm - N/A   Mostly Cloudy
3:35 AM 41.0 °F - 41.0 °F 100% 29.93 in 7.0 mi Calm Calm - N/A   Overcast
3:55 AM 41.0 °F - 41.0 °F 100% 29.92 in 7.0 mi Calm Calm - N/A   Mostly Cloudy
4:15 AM 42.8 °F - 41.0 °F 93% 29.92 in 7.0 mi Calm Calm - N/A   Mostly Cloudy
4:35 AM 41.0 °F - 41.0 °F 100% 29.90 in 7.0 mi Calm Calm - N/A   Mostly Cloudy
4:55 AM 42.8 °F 41.1 °F 41.0 °F 93% 29.89 in 5.0 mi SE 3.5 mph - N/A   Scattered Clouds
5:15 AM 41.0 °F - 41.0 °F 100% 29.89 in 7.0 mi Calm Calm - N/A   Overcast
5:35 AM 42.8 °F - 41.0 °F 93% 29.88 in 7.0 mi Calm Calm - N/A   Light Drizzle
5:55 AM 42.8 °F - 41.0 °F 93% 29.88 in 7.0 mi Calm Calm - N/A Rain Light Rain
6:15 AM 42.8 °F - 41.0 °F 93% 29.87 in 7.0 mi Calm Calm - N/A Rain Rain
6:35 AM 42.8 °F - 41.0 °F 93% 29.87 in 7.0 mi Calm Calm - N/A   Light Drizzle
6:55 AM 42.8 °F - 41.0 °F 93% 29.86 in 7.0 mi Calm Calm - N/A   Light Drizzle
7:15 AM 42.8 °F - 42.8 °F 100% 29.85 in 7.0 mi Calm Calm - N/A   Light Drizzle
7:35 AM 42.8 °F - 42.8 °F 100% 29.85 in 7.0 mi Calm Calm - N/A Rain Light Rain
7:55 AM 42.8 °F - 42.8 °F 100% 29.86 in 5.0 mi Calm Calm - N/A Rain Light Rain
8:15 AM 42.8 °F 41.1 °F 42.8 °F 100% 29.86 in 5.0 mi West 3.5 mph - 0.01 in Rain Light Rain
8:35 AM 42.8 °F 40.1 °F 42.8 °F 100% 29.86 in 4.0 mi West 4.6 mph - 0.03 in Rain Light Rain
8:55 AM 42.8 °F 41.1 °F 41.0 °F 93% 29.86 in 4.0 mi WNW 3.5 mph - 0.04 in   Drizzle
9:15 AM 41.0 °F - 41.0 °F 100% 29.87 in 5.0 mi Calm Calm - 0.01 in Rain Rain
9:35 AM 42.8 °F - 41.0 °F 93% 29.86 in 4.0 mi Calm Calm - 0.02 in Rain Light Rain
9:55 AM 42.8 °F 39.3 °F 42.8 °F 100% 29.87 in 4.0 mi West 5.8 mph - 0.04 in Rain Rain
10:15 AM 42.8 °F 37.5 °F 42.8 °F 100% 29.89 in 4.0 mi West 9.2 mph - 0.02 in Rain Rain
10:35 AM 41.0 °F 37.1 °F 41.0 °F 100% 29.88 in 4.0 mi WNW 5.8 mph - 0.05 in Rain Rain
10:55 AM 41.0 °F 37.1 °F 41.0 °F 100% 29.86 in 10.0 mi NW 5.8 mph - 0.06 in Rain Light Rain
11:15 AM 42.8 °F 38.6 °F 41.0 °F 93% 29.86 in 10.0 mi WNW 6.9 mph - N/A   Light Drizzle
11:35 AM 41.0 °F 35.8 °F 41.0 °F 100% 29.86 in 10.0 mi WNW 8.1 mph - N/A Rain Light Rain
11:55 AM 42.8 °F 38.0 °F 41.0 °F 93% 29.86 in 10.0 mi WNW 8.1 mph - N/A Rain Light Rain
12:15 PM 41.0 °F 34.7 °F 41.0 °F 100% 29.86 in 10.0 mi WNW 10.4 mph - N/A   Light Drizzle
12:35 PM 42.8 °F 36.2 °F 41.0 °F 93% 29.87 in 10.0 mi West 12.7 mph 17.3 mph N/A   Overcast
12:55 PM 41.0 °F 35.2 °F 39.2 °F 93% 29.86 in 10.0 mi WNW 9.2 mph - N/A   Light Drizzle
2:55 PM 46.4 °F 40.1 °F 41.0 °F 81% 29.86 in 10.0 mi West 15.0 mph - N/A   Overcast
3:15 PM 46.4 °F 41.5 °F 41.0 °F 81% 29.85 in 10.0 mi West 10.4 mph - N/A   Overcast
3:35 PM 46.4 °F 41.1 °F 37.4 °F 71% 29.86 in 10.0 mi WNW 11.5 mph - N/A   Overcast
3:55 PM 46.4 °F 40.7 °F 37.4 °F 71% 29.86 in 10.0 mi WNW 12.7 mph 18.4 mph N/A   Mostly Cloudy
4:15 PM 46.4 °F 41.1 °F 37.4 °F 71% 29.87 in 10.0 mi West 11.5 mph - N/A   Overcast
4:35 PM 48.2 °F - 37.4 °F 66% 29.87 in 10.0 mi West 16.1 mph - N/A   Mostly Cloudy
4:55 PM 48.2 °F - 35.6 °F 62% 29.87 in 10.0 mi WNW 12.7 mph 19.6 mph N/A   Mostly Cloudy
5:15 PM 46.4 °F 40.1 °F 35.6 °F 66% 29.88 in 10.0 mi West 15.0 mph 18.4 mph N/A   Overcast
5:35 PM 48.2 °F - 35.6 °F 62% 29.88 in 10.0 mi West 11.5 mph 18.4 mph N/A   Mostly Cloudy
5:55 PM 48.2 °F - 35.6 °F 62% 29.88 in 10.0 mi WSW 12.7 mph - N/A   Scattered Clouds
6:15 PM 46.4 °F 41.1 °F 35.6 °F 66% 29.89 in 10.0 mi WSW 11.5 mph - N/A   Clear
6:35 PM 46.4 °F 42.4 °F 35.6 °F 66% 29.89 in 10.0 mi WSW 8.1 mph - N/A   Mostly Cloudy
6:55 PM 46.4 °F 43.5 °F 35.6 °F 66% 29.89 in 10.0 mi SW 5.8 mph - N/A   Overcast
7:15 PM 44.6 °F 40.2 °F 35.6 °F 71% 29.90 in 10.0 mi SW 8.1 mph - N/A   Mostly Cloudy
7:35 PM 44.6 °F 40.7 °F 35.6 °F 71% 29.90 in 10.0 mi SW 6.9 mph - N/A   Scattered Clouds
7:55 PM 42.8 °F 38.6 °F 35.6 °F 76% 29.91 in 10.0 mi SW 6.9 mph - N/A   Clear
8:15 PM 42.8 °F 38.6 °F 35.6 °F 76% 29.91 in 10.0 mi SW 6.9 mph - N/A   Clear
8:35 PM 41.0 °F 36.4 °F 35.6 °F 81% 29.91 in 10.0 mi SSW 6.9 mph - N/A   Clear
8:55 PM 41.0 °F 37.1 °F 35.6 °F 81% 29.92 in 10.0 mi SSW 5.8 mph - N/A   Clear
9:15 PM 41.0 °F 36.4 °F 35.6 °F 81% 29.93 in 10.0 mi SSW 6.9 mph - N/A   Clear
9:35 PM 41.0 °F 36.4 °F 35.6 °F 81% 29.93 in 10.0 mi SW 6.9 mph - N/A   Clear
9:55 PM 41.0 °F 36.4 °F 35.6 °F 81% 29.93 in 10.0 mi SW 6.9 mph - N/A   Clear
10:15 PM 41.0 °F 35.2 °F 35.6 °F 81% 29.94 in 10.0 mi SW 9.2 mph - N/A   Clear
10:35 PM 41.0 °F 35.2 °F 35.6 °F 81% 29.94 in 10.0 mi SW 9.2 mph - N/A   Clear
10:55 PM 41.0 °F 34.7 °F 35.6 °F 81% 29.94 in 10.0 mi SW 10.4 mph - N/A   Clear
11:15 PM 41.0 °F 35.2 °F 35.6 °F 81% 29.95 in 10.0 mi SW 9.2 mph - N/A   Clear
11:35 PM 41.0 °F 35.2 °F 35.6 °F 81% 29.95 in 10.0 mi SW 9.2 mph - N/A   Clear
11:55 PM 41.0 °F 35.8 °F 35.6 °F 81% 29.95 in 10.0 mi SW 8.1 mph - N/A   Clear